Tracking 20626 objects as of 8-Apr-2020
HD Live streaming from Space Station
objects crossing your sky now

SL-8 R/B

Track SL-8 R/B now!
10-day predictions


NORAD ID: 14619
Int'l Code: 1984-001J
Perigee: 1,477.6 km
Apogee: 1,679.8 km
Inclination: 74.0 °
Period: 117.6 minutes
Semi major axis: 7949 km
RCS: 6.4243 m2 (large)
Launch date: January 5, 1984
Source: Commonwealth of Independent States (former USSR) (CIS)
Launch site: PLESETSK MISSILE AND SPACE COMPLEX (PKMTR)

Note: This is a ROCKET BODY
aabbcc
Your satellite tracking list
Your tracking list is empty




NASA's NSSDC Master Catalog

Two Line Element Set (TLE):
1 14619U 84001J   20099.56357439 +.00000045 +00000-0 +52804-3 0  9997
2 14619 073.9961 155.2664 0127138 051.5291 054.0559 12.24835054621238
Source of the keplerian elements: AFSPC